{"data":{"norad_id":53138,"intl_designator":"2022-083G","name":"STARLINK-4141","alt_names":[],"object_type":"PAYLOAD","status":"ACTIVE","operator":null,"country":"US","launch_date":"2022-07-17","launch_site_code":"AFETR","launch_vehicle":null,"mission":null,"orbit_class":"UNKNOWN","rcs_meters":null,"size_class":null,"mass_kg":null,"dimensions":null,"purposes":["comms"],"wikipedia_slug":null,"has_3d_model":false,"image_url":null,"decayed_at":null,"tle_current":{"epoch":"2026-05-24T20:17:49.259328Z","epoch_age_seconds":82261,"freshness":"FRESH","line1":"1 53138U 22083G   26144.84570902  .00000051  00000+0  21279-4 0  9997","line2":"2 53138  53.2142 187.4241 0001011  81.5489 278.5617 15.08840233213550","mean_motion":15.08840233,"eccentricity":0.0001011,"inclination_deg":53.2142,"raan_deg":187.4241,"arg_perigee_deg":81.5489,"mean_anomaly_deg":278.5617,"bstar":2.1279e-5,"rev_number":21355,"period_min":95.437539939989,"perigee_km":539.04327914109,"apogee_km":540.44207441173,"semimajor_km":6917.8796767764,"source":"CELESTRAK","updated_at":"2026-05-25T13:38:17.316699Z"}}}